TimePST,TemperatureF,Dew PointF,Humidity,Sea Level PressureIn,VisibilityMPH,Wind Direction,Wind SpeedMPH,Gust SpeedMPH,PrecipitationIn,Events,Conditions,WindDirDegrees,DateUTC
12:53 AM,51.1,28.9,43,30.28,10.0,NNW,10.4,-,N/A,,Clear,340,2013-12-01 08:53:00
1:53 AM,51.1,28.0,41,30.29,10.0,NNW,9.2,-,N/A,,Clear,340,2013-12-01 09:53:00
2:53 AM,46.9,28.9,50,30.30,10.0,NW,9.2,-,N/A,,Clear,320,2013-12-01 10:53:00
3:53 AM,46.9,30.0,52,30.31,10.0,NNW,10.4,-,N/A,,Clear,340,2013-12-01 11:53:00
4:53 AM,46.0,30.0,54,30.33,10.0,North,4.6,-,N/A,,Clear,350,2013-12-01 12:53:00
5:53 AM,43.0,30.9,62,30.35,10.0,Calm,Calm,-,N/A,,Clear,0,2013-12-01 13:53:00
6:53 AM,46.0,28.9,51,30.38,10.0,North,8.1,-,N/A,,Clear,10,2013-12-01 14:53:00
7:53 AM,46.9,30.9,54,30.39,10.0,WNW,6.9,-,N/A,,Clear,290,2013-12-01 15:53:00
8:53 AM,52.0,30.0,43,30.38,10.0,Calm,Calm,-,N/A,,Clear,0,2013-12-01 16:53:00
9:53 AM,55.9,28.9,36,30.40,10.0,Calm,Calm,-,N/A,,Clear,0,2013-12-01 17:53:00
10:53 AM,57.9,32.0,37,30.38,10.0,East,3.5,-,N/A,,Clear,90,2013-12-01 18:53:00
11:53 AM,60.1,30.0,32,30.33,10.0,ENE,3.5,-,N/A,,Clear,60,2013-12-01 19:53:00
12:53 PM,60.1,30.0,32,30.30,10.0,SSE,3.5,-,N/A,,Clear,150,2013-12-01 20:53:00
1:53 PM,61.0,30.0,31,30.28,10.0,SSE,5.8,-,N/A,,Clear,150,2013-12-01 21:53:00
2:53 PM,63.0,30.9,30,30.27,10.0,East,4.6,-,N/A,,Clear,90,2013-12-01 22:53:00
3:53 PM,61.0,32.0,34,30.27,10.0,Calm,Calm,-,N/A,,Clear,0,2013-12-01 23:53:00
4:53 PM,59.0,30.9,35,30.27,10.0,Calm,Calm,-,N/A,,Clear,0,2013-12-02 00:53:00
5:53 PM,55.9,34.0,44,30.28,10.0,Calm,Calm,-,N/A,,Clear,0,2013-12-02 01:53:00
6:53 PM,51.1,37.0,59,30.28,10.0,WNW,4.6,-,N/A,,Clear,300,2013-12-02 02:53:00
7:53 PM,50.0,37.0,61,30.29,10.0,WNW,3.5,-,N/A,,Clear,300,2013-12-02 03:53:00
8:53 PM,48.9,36.0,61,30.28,10.0,NNW,4.6,-,N/A,,Clear,330,2013-12-02 04:53:00
9:53 PM,48.0,36.0,63,30.28,10.0,North,6.9,-,N/A,,Clear,350,2013-12-02 05:53:00
10:53 PM,46.9,36.0,66,30.27,10.0,Calm,Calm,-,N/A,,Clear,0,2013-12-02 06:53:00
11:53 PM,46.0,36.0,68,30.27,10.0,Calm,Calm,-,N/A,,Clear,0,2013-12-02 07:53:00